Location: B�rgermoos
(47.6500°N, 9.0667°E)
Time: 09:11:33
(UTC+00:00)

A-11 Canister half - Pass Details

Date: 09 August 2021
Orbit: 1526 x 1683 km, 47.3° (Epoch: 20 September)

Event Time Altitude Azimuth Distance (km) Brightness Sun altitude
Rises 07:14:56 0° 203° (SSW) 4,895 11.5 29.3°
Reaches altitude 10° 07:18:29 10° 194° (SSW) 3,922 11.2 29.9°
Maximum altitude 07:27:04 33° 135° (SE) 2,547 11.5 31.3°
Drops below altitude 10° 07:35:41 10° 77° (ENE) 3,939 12.3 32.7°
Sets 07:39:13 0° 69° (ENE) 4,919 12.4 33.3°
